Lid_Strength_Index
1 1 1 0 0 0 0 0 -0 -0 0 0 -0 0 -0 -0 -0 1 4 2 1 -2 -1 3 4 4 3 4 4 5 10 11 10 10 10 8 9 8 8 9 8 7 7 6 4
1 1 1 1 0 0 0 -0 -0 -0 -0 -0 -0 0 0 0 2 4 0 -1 -2 -2 3 4 5 5 6 5 5 8 10 10 8 8 10 9 9 9 10 10 9 9 7 6 5
1 1 1 1 1 0 0 -0 -1 -1 -0 -0 -0 0 0 1 4 4 -1 -2 -2 -1 3 4 4 5 7 6 7 7 10 8 8 8 8 9 9 9 10 11 9 9 8 8 7
1 1 1 1 1 0 -0 -0 -1 -1 -1 -0 -0 0 0 2 9 3 -2 -2 -2 2 4 4 5 7 8 9 7 10 8 8 7 8 8 9 9 10 10 9 8 8 7 8 8
1 1 1 1 1 0 -0 -1 -1 -1 -1 -0 -0 0 1 5 6 -0 -2 -1 1 3 5 6 7 7 9 9 9 9 8 7 7 8 9 8 9 10 10 8 7 7 7 8 8
1 1 1 1 0 0 -0 -0 -1 -0 -0 0 0 1 3 8 3 -0 -0 1 3 4 5 5 6 7 8 9 10 9 9 9 8 8 8 9 10 10 9 8 8 8 8 8 8
1 2 2 1 1 0 -0 -0 -0 0 0 -0 0 2 5 6 2 1 1 3 3 4 5 5 5 7 7 9 8 9 12 10 10 9 10 9 11 11 9 9 9 9 9 8 8
1 1 2 2 1 1 1 0 1 1 1 1 1 3 8 4 3 3 3 4 3 4 4 5 5 7 8 8 10 12 12 15 11 11 11 11 15 10 9 10 10 9 8 8 8
2 2 2 1 1 1 1 0 2 1 1 1 2 4 8 4 6 5 5 6 5 5 5 6 6 8 9 12 13 13 16 14 12 10 11 12 14 10 9 10 10 9 9 9 8
2 2 1 1 1 1 1 1 2 2 2 2 3 8 7 8 6 6 6 6 7 7 8 8 9 11 12 13 17 15 15 13 13 11 11 12 13 11 10 10 10 9 10 9 10
3 2 2 2 1 0 1 3 6 6 6 6 6 8 6 7 6 7 6 7 7 8 11 10 13 14 12 12 12 14 14 15 12 10 12 13 13 12 10 9 10 10 11 10 10
2 2 2 2 2 1 2 5 7 7 9 5 5 4 4 6 7 7 6 9 9 11 10 12 14 11 10 11 12 13 15 15 12 10 12 13 14 12 11 10 10 10 11 11 11
2 2 2 2 2 3 4 6 5 6 9 7 7 7 7 7 7 7 8 8 10 11 11 13 11 9 11 12 13 13 14 14 15 13 13 15 16 14 11 11 11 10 11 11 11
3 3 2 2 3 2 5 6 5 6 12 10 10 10 9 8 10 8 8 9 11 12 12 12 11 12 13 13 13 15 13 14 14 16 18 14 20 14 12 13 12 12 12 12 12
3 2 2 2 3 4 6 5 5 8 19 10 11 8 9 11 11 11 9 10 12 12 13 13 14 14 14 13 12 14 13 14 15 17 17 16 18 15 12 14 13 12 12 12 12
2 2 2 3 3 5 6 6 6 12 19 13 11 11 12 11 11 10 10 10 10 12 12 12 12 12 12 12 12 12 14 14 15 16 19 15 16 15 14 13 13 12 12 11 12
3 3 3 2 4 5 5 5 13 18 9 12 13 11 11 13 12 11 12 13 13 15 15 12 12 12 11 13 12 14 16 18 19 20 20 14 16 14 11 11 12 12 12 12 12
4 3 4 3 4 4 4 9 17 13 11 9 11 11 13 11 11 11 12 13 11 12 13 14 16 12 11 12 13 14 14 18 23 21 19 15 18 13 11 11 11 11 11 11 12
4 5 5 3 4 3 7 15 15 12 9 10 9 12 12 10 10 10 11 11 10 10 13 14 15 11 11 11 11 13 15 12 15 20 21 17 14 11 11 11 11 11 12 13 13
5 6 6 3 3 4 9 13 11 8 8 9 13 11 13 12 12 12 11 11 11 10 11 11 15 11 12 11 11 11 11 15 15 21 24 18 17 15 12 11 11 12 12 12 12
6 9 6 3 3 8 13 12 10 8 7 10 11 12 12 12 11 12 11 10 10 11 10 10 12 13 10 12 12 13 14 13 13 15 20 20 17 10 10 10 11 12 12 13 13
7 12 5 3 10 9 12 11 10 10 8 8 9 10 11 10 12 11 12 9 7 8 11 10 12 16 14 9 9 10 12 12 17 18 16 16 16 8 10 11 11 11 11 12 12
9 9 5 5 13 12 10 10 10 10 10 10 10 9 8 11 12 11 11 8 7 9 11 10 14 19 17 13 11 13 12 11 12 14 17 19 16 8 10 11 10 11 11 11 12
10 13 10 8 9 11 11 11 11 8 8 8 9 8 9 11 9 11 10 9 8 8 8 8 12 15 18 15 12 14 13 11 12 16 17 16 15 11 10 10 10 13 13 14 14
10 12 10 13 10 9 9 9 10 11 8 7 9 9 10 12 11 11 10 10 9 9 9 9 15 13 12 12 13 14 14 14 14 13 16 14 14 12 10 9 12 11 12 13 13
11 11 10 10 9 10 10 11 11 10 9 10 10 9 9 12 11 16 13 13 13 12 11 11 19 15 20 13 13 15 14 14 14 13 13 13 13 9 11 11 13 13 13 13 13
9 9 11 11 12 12 12 11 11 10 10 10 10 10 12 11 10 10 10 11 11 13 14 14 17 21 23 15 17 22 17 15 14 13 13 16 13 13 13 13 14 14 13 13 12